Flag for Argentina Weather past 2 weeks in Río Gallegos, Santa Cruz, Argentina

Now
34 °F

Sunny.


Feels Like: 34 °F
Forecast: 28 / 48 °F
Wind: No wind

Location: Rio Gallegos Aerodrome

Current Time: Sep 30, 2014 at 9:24:49 AM

Latest Report: Sep 30, 2014 at 8:00 AM


Visibility: 10 mi

Pressure: 30.07 "Hg

Humidity: 81%

Dew point: 28 °F

Location of Río GallegosLocation

Historic Weather in Río Gallegos — Graph

°F

Río Gallegos temperature yesterday

Maximum temperature yesterday: 118 °F (at 12:00 PM)
Minimum temperature yesterday: 34 °F (at 5:00 AM)
Average temperature yesterday: 42 °F

Past Weeks' High & Low Weather Summary

 TemperatureHumidityPressure
High118 °F (Sep 29, 12:00 PM)100% (Sep 21, 3:00 PM)30.12 "Hg (Sep 21, 3:00 PM)
Low28 °F (Sep 19, 5:00 AM)0% (Sep 29, 12:00 PM)29.18 "Hg (Sep 23, 3:00 PM)
Average42 °F62%29.58 "Hg
* Reported Sep 15 8:00 AM — Sep 30 8:00 AM, Río Gallegos, Weather by CustomWeather, © 2014

Note: Actual official high and low records may vary slightly from our data, if they occured in-between our weather recording intervals... More about our weather records

Advertising

Río Gallegos weather history for previous 24 hours

 ConditionsComfort  
Time TempWeatherWind HumidityBarometerVisibility
8:00 AM
Sep 30
34 °FSunny.No wind81%30.07 "Hg10 mi
7:00 AM34 °FSunny.7 mph81%30.07 "Hg10 mi
6:00 AM34 °FPassing clouds.No wind81%30.04 "HgN/A
5:00 AM36 °FPassing clouds.No wind75%30.04 "HgN/A
4:00 AM34 °FPassing clouds.No wind75%30.04 "HgN/A
3:00 AM34 °FPassing clouds.No wind75%30.04 "HgN/A
2:00 AM32 °FPassing clouds.No wind75%30.01 "HgN/A
1:00 AM34 °FPassing clouds.No wind75%30.01 "HgN/A
12:00 AM36 °FPassing clouds.No wind65%30.01 "HgN/A
11:00 PM
Sep 29
36 °FPassing clouds.No wind65%30.01 "HgN/A
10:00 PM37 °FChilly.No wind56%N/AN/A
9:00 PM39 °FPassing clouds.No wind48%29.98 "HgN/A
8:00 PM39 °FPassing clouds.3 mph48%29.95 "HgN/A
7:00 PM41 °FPassing clouds.8 mph39%29.95 "HgN/A
6:00 PM41 °FBroken clouds.7 mph42%29.92 "HgN/A
5:00 PM43 °FBroken clouds.9 mph39%29.92 "HgN/A
4:00 PM43 °FPartly sunny.12 mph42%29.92 "HgN/A
3:00 PM43 °FPartly sunny.12 mph42%29.89 "HgN/A
2:00 PM43 °FPartly sunny.10 mph39%29.89 "HgN/A
1:00 PM41 °FScattered clouds.7 mph45%29.89 "HgN/A
12:00 PM118 °FBroken clouds.6 mph0%29.89 "HgN/A
11:00 AM37 °FScattered clouds.7 mph70%29.89 "HgN/A
10:00 AM36 °FScattered clouds.7 mph87%29.86 "HgN/A
9:00 AM64 °FScattered clouds.7 mph30%29.86 "HgN/A
Weather by CustomWeather, © 2014

See weather overviewHow to use our weather pages